Location: Melbourne
(37.8120°S, 144.9677°E)
Time: 07:54:03
(UTC+10:00)

ISS - Visible Passes

Search period start: 06 May 2016 00:00
Search period end: 16 May 2016 00:00
Orbit: 402 x 405 km, 51.6° (Epoch: 05 May)

Date Brightness Start Highest point End Pass type
(mag) Time Alt. Az. Time Alt. Az. Time Alt. Az.
06 May -2.6 17:58:46 10° WNW 18:02:02 52° SW 18:05:19 10° SE visible
06 May -0.3 19:37:40 10° SW 19:38:26 12° SSW 19:38:26 12° SSW visible
07 May -0.9 18:44:01 10° WSW 18:46:17 17° SSW 18:48:03 12° SSE visible
08 May -1.5 17:50:42 10° W 17:53:32 25° SSW 17:56:23 10° SSE visible
09 May -0.6 18:36:55 10° SW 18:38:01 11° SSW 18:39:07 10° S visible
